Time,TemperatureF,DewpointF,PressureIn,WindDirection,WindDirectionDegrees,WindSpeedMPH,WindSpeedGustMPH,Humidity,HourlyPrecipIn,Conditions,Clouds,dailyrainin,SoftwareType,DateUTC
2013-03-24 00:00:00,40.7,23.4,29.90,NE,45,1.8,3.4,50,0.00,,,0.00,WUHU216HW,2013-03-24 04:00:00,
2013-03-24 00:05:00,40.7,23.0,29.89,NNW,338,0.2,6.9,49,0.00,,,0.00,WUHU216HW,2013-03-24 04:05:00,
2013-03-24 00:10:00,40.5,23.3,29.89,North,0,3.4,6.9,50,0.00,,,0.00,WUHU216HW,2013-03-24 04:10:00,
2013-03-24 00:15:00,40.3,23.1,29.90,North,0,2.0,6.5,50,0.00,,,0.00,WUHU216HW,2013-03-24 04:15:00,
2013-03-24 00:20:00,40.1,23.0,29.90,NE,45,6.5,9.6,50,0.00,,,0.00,WUHU216HW,2013-03-24 04:20:00,
2013-03-24 00:25:00,40.0,23.2,29.90,NNE,23,3.8,9.6,51,0.00,,,0.00,WUHU216HW,2013-03-24 04:25:00,
2013-03-24 00:30:00,40.0,23.2,29.90,NNE,23,3.4,3.8,51,0.00,,,0.00,WUHU216HW,2013-03-24 04:30:00,
2013-03-24 00:35:00,39.8,23.0,29.90,North,0,2.0,3.8,51,0.00,,,0.00,WUHU216HW,2013-03-24 04:35:00,
2013-03-24 00:40:00,39.6,22.9,29.90,North,0,1.6,4.7,51,0.00,,,0.00,WUHU216HW,2013-03-24 04:40:00,
2013-03-24 00:45:00,39.6,22.9,29.90,North,0,1.6,4.7,51,0.00,,,0.00,WUHU216HW,2013-03-24 04:45:00,
2013-03-24 00:50:00,39.2,22.6,29.90,NNW,338,1.8,4.3,51,0.00,,,0.00,WUHU216HW,2013-03-24 04:50:00,
2013-03-24 00:55:00,39.2,22.6,29.90,North,0,0.4,4.3,51,0.00,,,0.00,WUHU216HW,2013-03-24 04:55:00,
2013-03-24 01:00:00,39.1,22.9,29.89,North,0,0.4,4.9,52,0.00,,,0.00,WUHU216HW,2013-03-24 05:00:00,
2013-03-24 01:05:00,38.9,22.7,29.90,NNE,23,0.7,4.9,52,0.00,,,0.00,WUHU216HW,2013-03-24 05:05:00,
2013-03-24 01:10:00,38.7,22.5,29.90,NE,45,0.0,1.8,52,0.00,,,0.00,WUHU216HW,2013-03-24 05:10:00,
2013-03-24 01:15:00,38.5,22.3,29.91,NNE,23,0.4,1.8,52,0.00,,,0.00,WUHU216HW,2013-03-24 05:15:00,
2013-03-24 01:20:00,38.3,22.2,29.89,North,0,1.8,2.5,52,0.00,,,0.00,WUHU216HW,2013-03-24 05:20:00,
2013-03-24 01:25:00,38.2,22.1,29.89,North,0,2.5,4.0,52,0.00,,,0.00,WUHU216HW,2013-03-24 05:25:00,
2013-03-24 01:30:00,38.0,22.3,29.88,North,0,2.5,4.0,53,0.00,,,0.00,WUHU216HW,2013-03-24 05:30:00,
2013-03-24 01:35:00,37.8,22.1,29.88,North,0,1.1,2.5,53,0.00,,,0.00,WUHU216HW,2013-03-24 05:35:00,
2013-03-24 01:40:00,37.6,22.0,29.88,North,0,2.0,2.5,53,0.00,,,0.00,WUHU216HW,2013-03-24 05:40:00,
2013-03-24 01:45:00,37.4,21.8,29.88,North,0,0.9,2.0,53,0.00,,,0.00,WUHU216HW,2013-03-24 05:45:00,
2013-03-24 01:50:00,37.4,22.2,29.89,NNE,23,0.0,3.8,54,0.00,,,0.00,WUHU216HW,2013-03-24 05:50:00,
2013-03-24 01:55:00,37.3,22.1,29.90,North,0,0.2,3.8,54,0.00,,,0.00,WUHU216HW,2013-03-24 05:55:00,
2013-03-24 02:00:00,37.1,22.0,29.90,NNE,23,1.1,2.0,54,0.00,,,0.00,WUHU216HW,2013-03-24 06:00:00,
2013-03-24 02:05:00,36.9,21.8,29.89,NNW,338,0.4,2.0,54,0.00,,,0.00,WUHU216HW,2013-03-24 06:05:00,
2013-03-24 02:10:00,36.7,21.6,29.89,North,0,1.1,5.4,54,0.00,,,0.00,WUHU216HW,2013-03-24 06:10:00,
2013-03-24 02:15:00,36.7,21.6,29.89,North,0,0.4,5.4,54,0.00,,,0.00,WUHU216HW,2013-03-24 06:15:00,
2013-03-24 02:20:00,36.5,21.9,29.89,North,0,0.0,3.8,55,0.00,,,0.00,WUHU216HW,2013-03-24 06:20:00,
2013-03-24 02:25:00,36.5,21.9,29.89,WNW,293,0.4,1.1,55,0.00,,,0.00,WUHU216HW,2013-03-24 06:25:00,
2013-03-24 02:30:00,36.4,21.7,29.89,North,0,0.0,1.6,55,0.00,,,0.00,WUHU216HW,2013-03-24 06:30:00,
2013-03-24 02:35:00,36.4,21.7,29.88,North,0,0.2,1.6,55,0.00,,,0.00,WUHU216HW,2013-03-24 06:35:00,
2013-03-24 02:40:00,36.2,21.5,29.88,NNE,23,0.0,2.0,55,0.00,,,0.00,WUHU216HW,2013-03-24 06:40:00,
2013-03-24 02:45:00,36.0,21.8,29.88,NE,45,1.6,2.0,56,0.00,,,0.00,WUHU216HW,2013-03-24 06:45:00,
2013-03-24 02:50:00,35.6,21.5,29.88,North,0,0.0,1.8,56,0.00,,,0.00,WUHU216HW,2013-03-24 06:50:00,
2013-03-24 02:55:00,35.6,21.5,29.87,North,0,0.2,1.8,56,0.00,,,0.00,WUHU216HW,2013-03-24 06:55:00,
2013-03-24 03:00:00,35.3,21.2,29.88,North,0,0.0,0.2,56,0.00,,,0.00,WUHU216HW,2013-03-24 07:00:00,
2013-03-24 03:05:00,35.1,21.0,29.88,North,0,0.0,0.2,56,0.00,,,0.00,WUHU216HW,2013-03-24 07:05:00,
2013-03-24 03:10:00,34.9,20.8,29.88,NE,45,0.0,0.4,56,0.00,,,0.00,WUHU216HW,2013-03-24 07:10:00,
2013-03-24 03:15:00,34.7,20.6,29.87,South,180,0.0,0.4,56,0.00,,,0.00,WUHU216HW,2013-03-24 07:15:00,
2013-03-24 03:20:00,34.7,20.6,29.87,NNW,338,0.4,0.4,56,0.00,,,0.00,WUHU216HW,2013-03-24 07:20:00,
2013-03-24 03:25:00,34.6,20.4,29.88,SW,225,0.0,1.1,56,0.00,,,0.00,WUHU216HW,2013-03-24 07:25:00,
2013-03-24 03:30:00,34.2,20.5,29.88,WSW,248,0.0,1.1,57,0.00,,,0.00,WUHU216HW,2013-03-24 07:30:00,
2013-03-24 03:35:00,34.2,20.5,29.88,North,0,0.9,0.9,57,0.00,,,0.00,WUHU216HW,2013-03-24 07:35:00,
2013-03-24 03:40:00,34.2,20.9,29.88,West,270,0.0,1.3,58,0.00,,,0.00,WUHU216HW,2013-03-24 07:40:00,
2013-03-24 03:45:00,34.2,20.9,29.89,SW,225,0.2,1.3,58,0.00,,,0.00,WUHU216HW,2013-03-24 07:45:00,
2013-03-24 03:50:00,34.0,20.7,29.89,SW,225,0.0,0.4,58,0.00,,,0.00,WUHU216HW,2013-03-24 07:50:00,
2013-03-24 03:55:00,33.8,20.5,29.89,West,270,0.4,0.4,58,0.00,,,0.00,WUHU216HW,2013-03-24 07:55:00,
2013-03-24 04:00:00,33.7,20.8,29.89,WSW,248,0.0,0.4,59,0.00,,,0.00,WUHU216HW,2013-03-24 08:00:00,
2013-03-24 04:05:00,33.5,20.7,29.89,North,0,0.0,0.7,59,0.00,,,0.00,WUHU216HW,2013-03-24 08:05:00,
2013-03-24 04:10:00,33.5,20.7,29.90,WNW,293,0.0,0.7,59,0.00,,,0.00,WUHU216HW,2013-03-24 08:10:00,
2013-03-24 04:15:00,33.3,20.5,29.90,WNW,293,0.0,0.0,59,0.00,,,0.00,WUHU216HW,2013-03-24 08:15:00,
2013-03-24 04:20:00,33.1,20.3,29.90,North,0,0.0,0.0,59,0.00,,,0.00,WUHU216HW,2013-03-24 08:20:00,
2013-03-24 04:25:00,33.1,20.8,29.90,North,0,0.0,1.6,60,0.00,,,0.00,WUHU216HW,2013-03-24 08:25:00,
2013-03-24 04:30:00,33.1,20.8,29.90,NW,315,0.2,1.6,60,0.00,,,0.00,WUHU216HW,2013-03-24 08:30:00,
2013-03-24 04:35:00,32.9,20.6,29.90,NNW,338,0.0,0.4,60,0.00,,,0.00,WUHU216HW,2013-03-24 08:35:00,
2013-03-24 04:40:00,32.9,20.6,29.90,NNW,338,0.0,0.2,60,0.00,,,0.00,WUHU216HW,2013-03-24 08:40:00,
2013-03-24 04:45:00,33.1,21.2,29.90,NNW,338,0.0,0.0,61,0.00,,,0.00,WUHU216HW,2013-03-24 08:45:00,
2013-03-24 04:50:00,33.1,21.2,29.90,NNW,338,0.0,0.2,61,0.00,,,0.00,WUHU216HW,2013-03-24 08:50:00,
2013-03-24 04:55:00,32.9,21.0,29.90,NNW,338,0.0,0.2,61,0.00,,,0.00,WUHU216HW,2013-03-24 08:55:00,
2013-03-24 05:00:00,32.9,21.0,29.90,NNW,338,0.0,0.0,61,0.00,,,0.00,WUHU216HW,2013-03-24 09:00:00,
2013-03-24 05:05:00,32.8,20.8,29.90,NNW,338,0.0,0.0,61,0.00,,,0.00,WUHU216HW,2013-03-24 09:05:00,
2013-03-24 05:10:00,32.8,20.8,29.90,NNW,338,0.0,0.0,61,0.00,,,0.00,WUHU216HW,2013-03-24 09:10:00,
2013-03-24 05:15:00,32.8,20.8,29.90,NNW,338,0.0,0.0,61,0.00,,,0.00,WUHU216HW,2013-03-24 09:15:00,
2013-03-24 05:20:00,32.8,21.2,29.89,NNW,338,0.4,0.4,62,0.00,,,0.00,WUHU216HW,2013-03-24 09:20:00,
2013-03-24 05:25:00,32.8,21.2,29.89,NNW,338,0.0,0.4,62,0.00,,,0.00,WUHU216HW,2013-03-24 09:25:00,
2013-03-24 05:30:00,32.8,21.2,29.89,NNW,338,0.0,0.4,62,0.00,,,0.00,WUHU216HW,2013-03-24 09:30:00,
2013-03-24 05:35:00,32.8,21.2,29.89,NNW,338,0.0,0.0,62,0.00,,,0.00,WUHU216HW,2013-03-24 09:35:00,
2013-03-24 05:40:00,32.8,21.2,29.89,North,0,0.4,0.4,62,0.00,,,0.00,WUHU216HW,2013-03-24 09:40:00,
2013-03-24 05:45:00,32.8,21.2,29.88,North,0,0.2,0.4,62,0.00,,,0.00,WUHU216HW,2013-03-24 09:45:00,
2013-03-24 05:50:00,32.8,21.2,29.88,NNW,338,0.0,0.4,62,0.00,,,0.00,WUHU216HW,2013-03-24 09:50:00,
2013-03-24 05:55:00,32.8,21.2,29.88,North,0,0.2,1.1,62,0.00,,,0.00,WUHU216HW,2013-03-24 09:55:00,
2013-03-24 06:00:00,32.8,21.2,29.88,North,0,0.0,1.1,62,0.00,,,0.00,WUHU216HW,2013-03-24 10:00:00,
2013-03-24 06:05:00,32.8,21.2,29.88,North,0,0.4,2.5,62,0.00,,,0.00,WUHU216HW,2013-03-24 10:05:00,
2013-03-24 06:10:00,32.6,21.3,29.88,NNW,338,0.2,2.5,63,0.00,,,0.00,WUHU216HW,2013-03-24 10:10:00,
2013-03-24 06:15:00,32.6,21.3,29.87,North,0,0.0,1.8,63,0.00,,,0.00,WUHU216HW,2013-03-24 10:15:00,
2013-03-24 06:20:00,32.6,21.3,29.87,North,0,0.0,0.7,63,0.00,,,0.00,WUHU216HW,2013-03-24 10:20:00,
2013-03-24 06:25:00,32.8,21.5,29.87,North,0,0.7,1.1,63,0.00,,,0.00,WUHU216HW,2013-03-24 10:25:00,
2013-03-24 06:30:00,32.8,21.5,29.87,North,0,0.0,1.6,63,0.00,,,0.00,WUHU216HW,2013-03-24 10:30:00,
2013-03-24 06:35:00,32.8,21.5,29.87,North,0,0.2,2.2,63,0.00,,,0.00,WUHU216HW,2013-03-24 10:35:00,
2013-03-24 06:40:00,32.8,21.5,29.88,NNE,23,0.4,2.2,63,0.00,,,0.00,WUHU216HW,2013-03-24 10:40:00,
2013-03-24 06:45:00,32.8,21.5,29.87,NE,45,0.0,0.4,63,0.00,,,0.00,WUHU216HW,2013-03-24 10:45:00,
2013-03-24 06:50:00,32.8,21.5,29.87,North,0,0.9,0.9,63,0.00,,,0.00,WUHU216HW,2013-03-24 10:50:00,
2013-03-24 06:55:00,32.8,21.5,29.88,North,0,0.4,0.9,63,0.00,,,0.00,WUHU216HW,2013-03-24 10:55:00,
2013-03-24 07:00:00,32.8,21.5,29.88,North,0,0.0,1.1,63,0.00,,,0.00,WUHU216HW,2013-03-24 11:00:00,
2013-03-24 07:05:00,32.9,21.7,29.89,North,0,0.2,1.1,63,0.00,,,0.00,WUHU216HW,2013-03-24 11:05:00,
2013-03-24 07:10:00,32.9,21.7,29.89,NNW,338,0.2,0.7,63,0.00,,,0.00,WUHU216HW,2013-03-24 11:10:00,
2013-03-24 07:15:00,33.1,21.9,29.89,NNW,338,0.0,0.4,63,0.00,,,0.00,WUHU216HW,2013-03-24 11:15:00,
2013-03-24 07:20:00,33.1,21.9,29.89,NNW,338,0.0,0.2,63,0.00,,,0.00,WUHU216HW,2013-03-24 11:20:00,
2013-03-24 07:25:00,33.1,21.9,29.89,NW,315,0.0,0.2,63,0.00,,,0.00,WUHU216HW,2013-03-24 11:25:00,
2013-03-24 07:30:00,33.3,22.1,29.89,WNW,293,0.0,0.2,63,0.00,,,0.00,WUHU216HW,2013-03-24 11:30:00,
2013-03-24 07:35:00,33.3,22.1,29.89,NNW,338,0.2,0.2,63,0.00,,,0.00,WUHU216HW,2013-03-24 11:35:00,
2013-03-24 07:40:00,33.5,22.1,29.89,NW,315,0.0,0.2,63,0.00,,,0.00,WUHU216HW,2013-03-24 11:40:00,
2013-03-24 07:45:00,33.5,22.1,29.89,NNW,338,0.2,0.7,63,0.00,,,0.00,WUHU216HW,2013-03-24 11:45:00,
2013-03-24 07:50:00,33.5,22.1,29.89,NNW,338,0.2,0.7,63,0.00,,,0.00,WUHU216HW,2013-03-24 11:50:00,
2013-03-24 07:55:00,33.5,22.1,29.88,NNW,338,0.0,0.2,63,0.00,,,0.00,WUHU216HW,2013-03-24 11:55:00,
2013-03-24 08:00:00,33.7,22.3,29.87,North,0,0.0,0.4,63,0.00,,,0.00,WUHU216HW,2013-03-24 12:00:00,
2013-03-24 08:05:00,33.7,22.3,29.87,NNW,338,0.2,1.1,63,0.00,,,0.00,WUHU216HW,2013-03-24 12:05:00,
2013-03-24 08:10:00,33.8,22.5,29.88,North,0,0.4,3.6,63,0.00,,,0.00,WUHU216HW,2013-03-24 12:10:00,
2013-03-24 08:15:00,34.0,22.7,29.88,NNE,23,2.7,3.6,63,0.00,,,0.00,WUHU216HW,2013-03-24 12:15:00,
2013-03-24 08:20:00,34.2,22.9,29.88,NNE,23,1.8,5.4,63,0.00,,,0.00,WUHU216HW,2013-03-24 12:20:00,
2013-03-24 08:25:00,34.4,23.0,29.89,NNW,338,0.4,5.4,63,0.00,,,0.00,WUHU216HW,2013-03-24 12:25:00,
2013-03-24 08:30:00,34.6,23.2,29.89,North,0,1.6,2.0,63,0.00,,,0.00,WUHU216HW,2013-03-24 12:30:00,
2013-03-24 08:35:00,34.9,23.2,29.89,NNE,23,1.8,2.5,62,0.00,,,0.00,WUHU216HW,2013-03-24 12:35:00,
2013-03-24 08:40:00,34.9,23.2,29.89,North,0,0.9,3.1,62,0.00,,,0.00,WUHU216HW,2013-03-24 12:40:00,
2013-03-24 08:45:00,35.3,23.6,29.88,North,0,0.9,4.0,62,0.00,,,0.00,WUHU216HW,2013-03-24 12:45:00,
2013-03-24 08:50:00,35.6,23.9,29.87,North,0,0.2,4.0,62,0.00,,,0.00,WUHU216HW,2013-03-24 12:50:00,
2013-03-24 08:55:00,35.6,23.9,29.87,North,0,1.1,3.4,62,0.00,,,0.00,WUHU216HW,2013-03-24 12:55:00,
2013-03-24 09:00:00,36.0,24.3,29.87,NNW,338,0.9,7.6,62,0.00,,,0.00,WUHU216HW,2013-03-24 13:00:00,
2013-03-24 09:05:00,36.4,24.2,29.86,North,0,1.1,7.6,61,0.00,,,0.00,WUHU216HW,2013-03-24 13:05:00,
2013-03-24 09:10:00,36.4,24.2,29.86,NNW,338,4.7,5.1,61,0.00,,,0.00,WUHU216HW,2013-03-24 13:10:00,
2013-03-24 09:15:00,36.7,24.2,29.85,ENE,68,6.0,6.9,60,0.00,,,0.00,WUHU216HW,2013-03-24 13:15:00,
2013-03-24 09:20:00,36.9,24.4,29.84,North,0,2.7,12.1,60,0.00,,,0.00,WUHU216HW,2013-03-24 13:20:00,
2013-03-24 09:25:00,36.9,24.4,29.84,NNE,23,10.3,12.1,60,0.00,,,0.00,WUHU216HW,2013-03-24 13:25:00,
2013-03-24 09:30:00,37.1,24.5,29.84,North,0,1.1,10.3,60,0.00,,,0.00,WUHU216HW,2013-03-24 13:30:00,
2013-03-24 09:35:00,37.1,24.5,29.84,North,0,1.1,10.3,60,0.00,,,0.00,WUHU216HW,2013-03-24 13:35:00,
2013-03-24 09:40:00,37.4,24.8,29.84,NNE,23,5.8,6.3,60,0.00,,,0.00,WUHU216HW,2013-03-24 13:40:00,
2013-03-24 09:45:00,37.4,24.8,29.84,ENE,68,6.9,6.9,60,0.00,,,0.00,WUHU216HW,2013-03-24 13:45:00,
2013-03-24 09:50:00,37.6,25.0,29.84,North,0,1.1,6.9,60,0.00,,,0.00,WUHU216HW,2013-03-24 13:50:00,
2013-03-24 09:55:00,37.8,24.8,29.83,North,0,1.6,4.3,59,0.00,,,0.00,WUHU216HW,2013-03-24 13:55:00,
2013-03-24 10:00:00,38.0,24.5,29.83,ESE,113,2.2,7.8,58,0.00,,,0.00,WUHU216HW,2013-03-24 14:00:00,
2013-03-24 10:05:00,38.2,24.7,29.83,East,90,8.1,8.1,58,0.00,,,0.00,WUHU216HW,2013-03-24 14:05:00,
2013-03-24 10:10:00,38.5,24.5,29.83,NE,45,7.6,8.1,57,0.00,,,0.00,WUHU216HW,2013-03-24 14:10:00,
2013-03-24 10:15:00,38.7,24.7,29.83,NE,45,3.4,8.1,57,0.00,,,0.00,WUHU216HW,2013-03-24 14:15:00,
2013-03-24 10:20:00,38.9,24.8,29.83,NNE,23,3.6,7.6,57,0.00,,,0.00,WUHU216HW,2013-03-24 14:20:00,
2013-03-24 10:25:00,39.2,24.8,29.82,ENE,68,5.4,12.5,56,0.00,,,0.00,WUHU216HW,2013-03-24 14:25:00,
2013-03-24 10:30:00,39.2,24.8,29.82,NNW,338,0.9,12.5,56,0.00,,,0.00,WUHU216HW,2013-03-24 14:30:00,
2013-03-24 10:35:00,39.6,25.1,29.82,North,0,0.2,7.8,56,0.00,,,0.00,WUHU216HW,2013-03-24 14:35:00,
2013-03-24 10:40:00,39.6,24.7,29.82,ENE,68,1.6,7.8,55,0.00,,,0.00,WUHU216HW,2013-03-24 14:40:00,
2013-03-24 10:45:00,40.0,25.0,29.82,North,0,2.7,7.6,55,0.00,,,0.00,WUHU216HW,2013-03-24 14:45:00,
2013-03-24 10:50:00,40.1,25.1,29.81,NE,45,2.0,9.6,55,0.00,,,0.00,WUHU216HW,2013-03-24 14:50:00,
2013-03-24 10:55:00,40.5,25.5,29.81,NNE,23,4.0,9.6,55,0.00,,,0.00,WUHU216HW,2013-03-24 14:55:00,
2013-03-24 11:00:00,40.7,25.7,29.81,SSE,158,1.6,6.3,55,0.00,,,0.00,WUHU216HW,2013-03-24 15:00:00,
2013-03-24 11:05:00,40.9,25.4,29.80,SE,135,1.6,8.7,54,0.00,,,0.00,WUHU216HW,2013-03-24 15:05:00,
2013-03-24 11:10:00,40.9,25.4,29.81,NE,45,4.7,8.7,54,0.00,,,0.00,WUHU216HW,2013-03-24 15:10:00,
2013-03-24 11:15:00,40.9,24.9,29.81,SSE,158,1.8,4.7,53,0.00,,,0.00,WUHU216HW,2013-03-24 15:15:00,
2013-03-24 11:20:00,41.0,25.1,29.81,NNE,23,0.2,5.6,53,0.00,,,0.00,WUHU216HW,2013-03-24 15:20:00,
2013-03-24 11:25:00,41.0,25.1,29.81,East,90,0.4,5.6,53,0.00,,,0.00,WUHU216HW,2013-03-24 15:25:00,
2013-03-24 11:30:00,41.0,25.1,29.81,East,90,0.9,4.5,53,0.00,,,0.00,WUHU216HW,2013-03-24 15:30:00,
2013-03-24 11:35:00,41.0,25.1,29.81,ENE,68,4.3,4.5,53,0.00,,,0.00,WUHU216HW,2013-03-24 15:35:00,
2013-03-24 11:40:00,41.2,25.3,29.81,North,0,0.2,4.3,53,0.00,,,0.00,WUHU216HW,2013-03-24 15:40:00,
2013-03-24 11:45:00,41.2,24.9,29.80,North,0,1.1,4.3,52,0.00,,,0.00,WUHU216HW,2013-03-24 15:45:00,
2013-03-24 11:50:00,41.4,25.0,29.81,NNE,23,6.3,6.3,52,0.00,,,0.00,WUHU216HW,2013-03-24 15:50:00,
2013-03-24 11:55:00,41.4,25.0,29.80,NE,45,1.6,6.9,52,0.00,,,0.00,WUHU216HW,2013-03-24 15:55:00,
2013-03-24 12:00:00,41.6,25.2,29.79,NNW,338,1.1,6.9,52,0.00,,,0.00,WUHU216HW,2013-03-24 16:00:00,
2013-03-24 12:05:00,41.8,25.4,29.79,North,0,8.5,8.5,52,0.00,,,0.00,WUHU216HW,2013-03-24 16:05:00,
2013-03-24 12:10:00,41.6,24.3,29.79,SSW,203,4.7,8.5,50,0.00,,,0.00,WUHU216HW,2013-03-24 16:10:00,
2013-03-24 12:15:00,41.4,24.6,29.78,South,180,1.1,8.5,51,0.00,,,0.00,WUHU216HW,2013-03-24 16:15:00,
2013-03-24 12:20:00,41.4,24.6,29.78,NE,45,1.1,6.3,51,0.00,,,0.00,WUHU216HW,2013-03-24 16:20:00,
2013-03-24 12:25:00,41.6,24.8,29.78,ESE,113,3.4,6.3,51,0.00,,,0.00,WUHU216HW,2013-03-24 16:25:00,
2013-03-24 12:30:00,41.6,24.3,29.77,NNE,23,4.7,4.7,50,0.00,,,0.00,WUHU216HW,2013-03-24 16:30:00,
2013-03-24 12:35:00,41.4,24.6,29.76,ENE,68,4.0,6.3,51,0.00,,,0.00,WUHU216HW,2013-03-24 16:35:00,
2013-03-24 12:40:00,41.6,24.3,29.76,NNE,23,6.9,6.9,50,0.00,,,0.00,WUHU216HW,2013-03-24 16:40:00,
2013-03-24 12:45:00,41.8,24.5,29.76,SE,135,1.3,6.9,50,0.00,,,0.00,WUHU216HW,2013-03-24 16:45:00,
2013-03-24 12:50:00,41.8,24.5,29.76,SE,135,1.1,6.9,50,0.00,,,0.00,WUHU216HW,2013-03-24 16:50:00,
2013-03-24 12:55:00,41.8,24.5,29.75,NNE,23,1.8,3.8,50,0.00,,,0.00,WUHU216HW,2013-03-24 16:55:00,
2013-03-24 13:00:00,41.8,24.5,29.75,NE,45,3.4,3.4,50,0.00,,,0.00,WUHU216HW,2013-03-24 17:00:00,
2013-03-24 13:05:00,41.8,23.9,29.74,NE,45,3.4,4.5,49,0.00,,,0.00,WUHU216HW,2013-03-24 17:05:00,
2013-03-24 13:10:00,41.8,24.5,29.73,NNE,23,2.2,5.4,50,0.00,,,0.00,WUHU216HW,2013-03-24 17:10:00,
2013-03-24 13:15:00,41.9,24.7,29.73,North,0,0.4,5.6,50,0.00,,,0.00,WUHU216HW,2013-03-24 17:15:00,
2013-03-24 13:20:00,41.9,24.7,29.73,SE,135,1.6,5.6,50,0.00,,,0.00,WUHU216HW,2013-03-24 17:20:00,
2013-03-24 13:25:00,41.9,24.1,29.73,ESE,113,1.6,4.5,49,0.00,,,0.00,WUHU216HW,2013-03-24 17:25:00,
2013-03-24 13:30:00,42.1,24.8,29.72,SSW,203,2.5,3.8,50,0.00,,,0.00,WUHU216HW,2013-03-24 17:30:00,
2013-03-24 13:35:00,42.1,24.3,29.72,NE,45,1.1,3.8,49,0.00,,,0.00,WUHU216HW,2013-03-24 17:35:00,
2013-03-24 13:40:00,42.3,24.5,29.71,NE,45,3.4,4.3,49,0.00,,,0.00,WUHU216HW,2013-03-24 17:40:00,
2013-03-24 13:45:00,42.5,25.2,29.71,ENE,68,1.8,4.3,50,0.00,,,0.00,WUHU216HW,2013-03-24 17:45:00,
2013-03-24 13:50:00,42.8,25.6,29.70,NE,45,9.2,9.2,50,0.00,,,0.00,WUHU216HW,2013-03-24 17:50:00,
2013-03-24 13:55:00,43.2,25.9,29.70,SSW,203,1.8,9.2,50,0.00,,,0.00,WUHU216HW,2013-03-24 17:55:00,
2013-03-24 14:00:00,43.6,26.2,29.69,NNE,23,3.4,9.2,50,0.00,,,0.00,WUHU216HW,2013-03-24 18:00:00,
2013-03-24 14:05:00,43.7,26.4,29.69,NNE,23,3.4,10.1,50,0.00,,,0.00,WUHU216HW,2013-03-24 18:05:00,
2013-03-24 14:10:00,43.7,26.4,29.69,SSW,203,0.4,10.1,50,0.00,,,0.00,WUHU216HW,2013-03-24 18:10:00,
2013-03-24 14:15:00,43.7,25.8,29.68,ESE,113,1.3,3.4,49,0.00,,,0.00,WUHU216HW,2013-03-24 18:15:00,
2013-03-24 14:20:00,43.7,25.8,29.68,East,90,2.2,2.2,49,0.00,,,0.00,WUHU216HW,2013-03-24 18:20:00,
2013-03-24 14:25:00,43.6,25.7,29.68,NNE,23,0.9,2.7,49,0.00,,,0.00,WUHU216HW,2013-03-24 18:25:00,
2013-03-24 14:30:00,43.6,25.7,29.68,NNE,23,1.8,2.7,49,0.00,,,0.00,WUHU216HW,2013-03-24 18:30:00,
2013-03-24 14:35:00,43.6,25.7,29.66,SE,135,2.5,3.4,49,0.00,,,0.00,WUHU216HW,2013-03-24 18:35:00,
2013-03-24 14:40:00,43.7,25.8,29.66,ENE,68,3.4,3.4,49,0.00,,,0.00,WUHU216HW,2013-03-24 18:40:00,
2013-03-24 14:45:00,43.7,25.8,29.65,North,0,2.5,4.5,49,0.00,,,0.00,WUHU216HW,2013-03-24 18:45:00,
2013-03-24 14:50:00,43.9,25.5,29.65,South,180,6.9,6.9,48,0.00,,,0.00,WUHU216HW,2013-03-24 18:50:00,
2013-03-24 14:55:00,43.6,25.1,29.65,South,180,2.2,8.3,48,0.00,,,0.00,WUHU216HW,2013-03-24 18:55:00,
2013-03-24 15:00:00,43.4,24.9,29.64,SE,135,1.3,8.3,48,0.00,,,0.00,WUHU216HW,2013-03-24 19:00:00,
2013-03-24 15:05:00,43.4,24.9,29.64,NE,45,5.4,5.4,48,0.00,,,0.00,WUHU216HW,2013-03-24 19:05:00,
2013-03-24 15:10:00,43.0,24.7,29.64,South,180,2.7,5.4,48,0.00,,,0.00,WUHU216HW,2013-03-24 19:10:00,
2013-03-24 15:15:00,42.8,24.5,29.64,SSE,158,0.7,5.4,48,0.00,,,0.00,WUHU216HW,2013-03-24 19:15:00,
2013-03-24 15:20:00,42.8,24.5,29.64,NNE,23,3.1,4.3,48,0.00,,,0.00,WUHU216HW,2013-03-24 19:20:00,
2013-03-24 15:25:00,42.8,24.5,29.63,East,90,4.7,6.3,48,0.00,,,0.00,WUHU216HW,2013-03-24 19:25:00,
2013-03-24 15:30:00,42.8,24.5,29.64,NE,45,3.1,6.3,48,0.00,,,0.00,WUHU216HW,2013-03-24 19:30:00,
2013-03-24 15:35:00,42.8,25.0,29.64,NE,45,3.4,6.0,49,0.00,,,0.00,WUHU216HW,2013-03-24 19:35:00,
2013-03-24 15:40:00,42.7,24.8,29.63,NNE,23,4.9,6.0,49,0.00,,,0.00,WUHU216HW,2013-03-24 19:40:00,
2013-03-24 15:45:00,42.8,25.0,29.63,ENE,68,2.7,4.9,49,0.00,,,0.00,WUHU216HW,2013-03-24 19:45:00,
2013-03-24 15:50:00,42.8,25.0,29.63,ESE,113,1.8,4.9,49,0.00,,,0.00,WUHU216HW,2013-03-24 19:50:00,
2013-03-24 15:55:00,42.5,24.7,29.63,South,180,0.9,3.4,49,0.00,,,0.00,WUHU216HW,2013-03-24 19:55:00,
2013-03-24 16:00:00,42.5,24.7,29.63,ENE,68,1.1,3.8,49,0.00,,,0.00,WUHU216HW,2013-03-24 20:00:00,
2013-03-24 16:05:00,42.5,24.7,29.63,East,90,2.0,4.5,49,0.00,,,0.00,WUHU216HW,2013-03-24 20:05:00,
2013-03-24 16:10:00,42.5,24.7,29.63,SE,135,2.7,4.5,49,0.00,,,0.00,WUHU216HW,2013-03-24 20:10:00,
2013-03-24 16:15:00,42.5,25.2,29.63,SSE,158,1.3,2.7,50,0.00,,,0.00,WUHU216HW,2013-03-24 20:15:00,
2013-03-24 16:20:00,42.5,25.2,29.63,NE,45,1.6,3.6,50,0.00,,,0.00,WUHU216HW,2013-03-24 20:20:00,
2013-03-24 16:25:00,42.5,25.2,29.63,NE,45,3.8,4.3,50,0.00,,,0.00,WUHU216HW,2013-03-24 20:25:00,
2013-03-24 16:30:00,42.5,25.2,29.62,NNE,23,1.1,7.2,50,0.00,,,0.00,WUHU216HW,2013-03-24 20:30:00,
2013-03-24 16:35:00,42.5,25.2,29.62,SE,135,2.7,7.2,50,0.00,,,0.00,WUHU216HW,2013-03-24 20:35:00,
2013-03-24 16:40:00,42.3,24.5,29.62,North,0,4.0,4.0,49,0.00,,,0.00,WUHU216HW,2013-03-24 20:40:00,
2013-03-24 16:45:00,42.3,24.5,29.62,South,180,0.4,4.0,49,0.00,,,0.00,WUHU216HW,2013-03-24 20:45:00,
2013-03-24 16:50:00,42.1,24.3,29.62,South,180,0.7,4.0,49,0.00,,,0.00,WUHU216HW,2013-03-24 20:50:00,
2013-03-24 16:55:00,42.1,24.3,29.62,ESE,113,1.8,1.8,49,0.00,,,0.00,WUHU216HW,2013-03-24 20:55:00,
2013-03-24 17:00:00,42.1,24.3,29.62,NE,45,3.4,3.4,49,0.00,,,0.00,WUHU216HW,2013-03-24 21:00:00,
2013-03-24 17:05:00,42.3,24.5,29.62,NE,45,2.7,4.3,49,0.00,,,0.00,WUHU216HW,2013-03-24 21:05:00,
2013-03-24 17:10:00,42.3,24.5,29.61,NE,45,2.5,4.3,49,0.00,,,0.00,WUHU216HW,2013-03-24 21:10:00,
2013-03-24 17:15:00,42.1,24.8,29.62,NNE,23,2.9,5.4,50,0.00,,,0.00,WUHU216HW,2013-03-24 21:15:00,
2013-03-24 17:20:00,42.1,24.8,29.62,SSW,203,0.2,5.4,50,0.00,,,0.00,WUHU216HW,2013-03-24 21:20:00,
2013-03-24 17:25:00,42.3,25.0,29.62,North,0,0.4,2.9,50,0.00,,,0.00,WUHU216HW,2013-03-24 21:25:00,
2013-03-24 17:30:00,42.3,25.0,29.62,East,90,1.6,1.6,50,0.00,,,0.00,WUHU216HW,2013-03-24 21:30:00,
2013-03-24 17:35:00,42.3,25.0,29.62,SE,135,0.9,1.8,50,0.00,,,0.00,WUHU216HW,2013-03-24 21:35:00,
2013-03-24 17:40:00,42.1,24.8,29.62,ESE,113,0.2,1.8,50,0.00,,,0.00,WUHU216HW,2013-03-24 21:40:00,
2013-03-24 17:45:00,42.1,24.8,29.63,NE,45,1.3,2.2,50,0.00,,,0.00,WUHU216HW,2013-03-24 21:45:00,
2013-03-24 17:50:00,42.1,24.8,29.63,ENE,68,0.0,2.2,50,0.00,,,0.00,WUHU216HW,2013-03-24 21:50:00,
2013-03-24 17:55:00,42.1,24.8,29.63,SE,135,1.1,1.3,50,0.00,,,0.00,WUHU216HW,2013-03-24 21:55:00,
2013-03-24 18:00:00,42.1,24.8,29.63,SE,135,1.8,2.0,50,0.00,,,0.00,WUHU216HW,2013-03-24 22:00:00,
2013-03-24 18:05:00,42.1,24.8,29.63,South,180,0.4,2.0,50,0.00,,,0.00,WUHU216HW,2013-03-24 22:05:00,
2013-03-24 18:10:00,41.9,24.7,29.63,South,180,1.8,3.1,50,0.00,,,0.00,WUHU216HW,2013-03-24 22:10:00,
2013-03-24 18:15:00,41.8,23.9,29.63,SSW,203,0.9,3.1,49,0.00,,,0.00,WUHU216HW,2013-03-24 22:15:00,
2013-03-24 18:20:00,41.8,24.5,29.63,South,180,0.4,2.5,50,0.00,,,0.00,WUHU216HW,2013-03-24 22:20:00,
2013-03-24 18:25:00,41.8,24.5,29.63,SSE,158,1.8,2.7,50,0.00,,,0.00,WUHU216HW,2013-03-24 22:25:00,
2013-03-24 18:30:00,41.6,24.3,29.63,SE,135,0.9,5.8,50,0.00,,,0.00,WUHU216HW,2013-03-24 22:30:00,
2013-03-24 18:35:00,41.4,24.1,29.62,South,180,4.5,6.0,50,0.00,,,0.00,WUHU216HW,2013-03-24 22:35:00,
2013-03-24 18:40:00,41.4,24.1,29.63,South,180,2.9,6.0,50,0.00,,,0.00,WUHU216HW,2013-03-24 22:40:00,
2013-03-24 18:45:00,41.2,23.9,29.63,SSE,158,0.4,4.9,50,0.00,,,0.00,WUHU216HW,2013-03-24 22:45:00,
2013-03-24 18:50:00,41.2,23.9,29.63,South,180,1.8,2.9,50,0.00,,,0.00,WUHU216HW,2013-03-24 22:50:00,
2013-03-24 18:55:00,41.2,23.9,29.63,South,180,2.5,2.9,50,0.00,,,0.00,WUHU216HW,2013-03-24 22:55:00,
2013-03-24 19:00:00,41.0,23.8,29.63,South,180,4.0,4.0,50,0.00,,,0.00,WUHU216HW,2013-03-24 23:00:00,
2013-03-24 19:05:00,41.0,23.8,29.63,South,180,4.0,4.0,50,0.00,,,0.00,WUHU216HW,2013-03-24 23:05:00,
2013-03-24 19:10:00,40.9,23.6,29.62,South,180,1.1,4.0,50,0.00,,,0.00,WUHU216HW,2013-03-24 23:10:00,
2013-03-24 19:15:00,41.0,23.8,29.62,South,180,3.1,4.0,50,0.00,,,0.00,WUHU216HW,2013-03-24 23:15:00,
2013-03-24 19:20:00,40.7,23.4,29.62,South,180,8.1,8.1,50,0.00,,,0.00,WUHU216HW,2013-03-24 23:20:00,
2013-03-24 19:25:00,40.7,23.9,29.63,South,180,4.0,8.1,51,0.00,,,0.00,WUHU216HW,2013-03-24 23:25:00,
2013-03-24 19:30:00,40.5,24.1,29.63,South,180,5.4,8.1,52,0.00,,,0.00,WUHU216HW,2013-03-24 23:30:00,
2013-03-24 19:35:00,40.3,24.5,29.62,South,180,5.1,7.4,53,0.00,,,0.00,WUHU216HW,2013-03-24 23:35:00,
2013-03-24 19:40:00,40.3,24.5,29.63,South,180,2.5,5.4,53,0.00,,,0.00,WUHU216HW,2013-03-24 23:40:00,
2013-03-24 19:45:00,40.1,24.3,29.63,SSW,203,6.3,6.3,53,0.00,,,0.00,WUHU216HW,2013-03-24 23:45:00,
2013-03-24 19:50:00,40.0,24.6,29.63,SSE,158,3.8,9.6,54,0.00,,,0.00,WUHU216HW,2013-03-24 23:50:00,
2013-03-24 19:55:00,40.0,25.0,29.63,SSE,158,2.5,9.6,55,0.00,,,0.00,WUHU216HW,2013-03-24 23:55:00,
2013-03-24 20:00:00,40.0,25.0,29.63,South,180,5.4,7.2,55,0.00,,,0.00,WUHU216HW,2013-03-25 00:00:00,
2013-03-24 20:05:00,39.6,25.1,29.63,South,180,3.4,7.2,56,0.00,,,0.00,WUHU216HW,2013-03-25 00:05:00,
2013-03-24 20:10:00,39.2,26.5,29.63,SSW,203,6.9,9.8,60,0.00,,,0.00,WUHU216HW,2013-03-25 00:10:00,
2013-03-24 20:15:00,38.5,26.9,29.63,South,180,7.2,9.8,63,0.00,,,0.00,WUHU216HW,2013-03-25 00:15:00,
2013-03-24 20:20:00,37.8,26.3,29.63,South,180,8.3,8.3,63,0.00,,,0.00,WUHU216HW,2013-03-25 00:20:00,
2013-03-24 20:25:00,37.4,26.7,29.63,South,180,2.9,8.3,65,0.00,,,0.00,WUHU216HW,2013-03-25 00:25:00,
2013-03-24 20:30:00,37.3,26.6,29.63,South,180,4.5,8.3,65,0.00,,,0.00,WUHU216HW,2013-03-25 00:30:00,
2013-03-24 20:35:00,37.1,26.7,29.63,South,180,6.7,6.7,66,0.00,,,0.00,WUHU216HW,2013-03-25 00:35:00,
2013-03-24 20:40:00,36.7,26.8,29.63,South,180,1.1,6.7,67,0.00,,,0.00,WUHU216HW,2013-03-25 00:40:00,
2013-03-24 20:45:00,36.5,27.0,29.63,SSE,158,1.6,6.7,68,0.00,,,0.00,WUHU216HW,2013-03-25 00:45:00,
2013-03-24 20:50:00,36.4,26.8,29.63,SE,135,2.9,4.0,68,0.00,,,0.00,WUHU216HW,2013-03-25 00:50:00,
2013-03-24 20:55:00,36.0,26.8,29.63,NE,45,2.5,3.4,69,0.00,,,0.00,WUHU216HW,2013-03-25 00:55:00,
2013-03-24 21:00:00,35.8,27.0,29.62,SSE,158,2.2,4.0,70,0.00,,,0.00,WUHU216HW,2013-03-25 01:00:00,
2013-03-24 21:05:00,35.6,27.2,29.62,South,180,3.6,6.0,71,0.00,,,0.00,WUHU216HW,2013-03-25 01:05:00,
2013-03-24 21:10:00,35.3,27.5,29.62,SE,135,1.1,6.0,73,0.00,,,0.00,WUHU216HW,2013-03-25 01:10:00,
2013-03-24 21:15:00,35.3,27.5,29.61,West,270,1.8,5.4,73,0.00,,,0.00,WUHU216HW,2013-03-25 01:15:00,
2013-03-24 21:20:00,35.1,27.3,29.60,SE,135,1.8,2.0,73,0.00,,,0.00,WUHU216HW,2013-03-25 01:20:00,
2013-03-24 21:25:00,35.1,27.3,29.59,ENE,68,1.3,3.4,73,0.00,,,0.00,WUHU216HW,2013-03-25 01:25:00,
2013-03-24 21:30:00,35.1,27.3,29.59,ESE,113,2.0,4.7,73,0.00,,,0.00,WUHU216HW,2013-03-25 01:30:00,
2013-03-24 21:35:00,35.1,27.3,29.60,ESE,113,2.2,4.7,73,0.00,,,0.00,WUHU216HW,2013-03-25 01:35:00,
2013-03-24 21:40:00,35.1,27.3,29.60,SSE,158,0.4,2.7,73,0.00,,,0.00,WUHU216HW,2013-03-25 01:40:00,
2013-03-24 21:45:00,35.1,27.3,29.60,South,180,0.4,2.7,73,0.00,,,0.00,WUHU216HW,2013-03-25 01:45:00,
2013-03-24 21:50:00,35.1,27.3,29.60,SSW,203,0.4,1.8,73,0.00,,,0.00,WUHU216HW,2013-03-25 01:50:00,
2013-03-24 21:55:00,35.1,27.3,29.59,South,180,2.5,2.5,73,0.00,,,0.00,WUHU216HW,2013-03-25 01:55:00,
2013-03-24 22:00:00,35.1,27.3,29.60,South,180,1.6,2.5,73,0.00,,,0.00,WUHU216HW,2013-03-25 02:00:00,
2013-03-24 22:05:00,34.9,27.4,29.60,SSE,158,0.2,2.5,74,0.00,,,0.00,WUHU216HW,2013-03-25 02:05:00,
2013-03-24 22:10:00,35.1,27.5,29.59,SSE,158,1.1,1.6,74,0.00,,,0.00,WUHU216HW,2013-03-25 02:10:00,
2013-03-24 22:15:00,35.3,27.7,29.59,South,180,0.7,1.3,74,0.00,,,0.00,WUHU216HW,2013-03-25 02:15:00,
2013-03-24 22:20:00,35.3,28.1,29.59,SE,135,0.0,1.3,75,0.00,,,0.00,WUHU216HW,2013-03-25 02:20:00,
2013-03-24 22:25:00,35.3,28.1,29.59,SE,135,0.2,1.3,75,0.00,,,0.00,WUHU216HW,2013-03-25 02:25:00,
2013-03-24 22:30:00,35.3,28.1,29.59,SSE,158,0.0,1.3,75,0.00,,,0.00,WUHU216HW,2013-03-25 02:30:00,
2013-03-24 22:35:00,35.3,28.1,29.59,ESE,113,0.0,0.9,75,0.01,,,0.00,WUHU216HW,2013-03-25 02:35:00,
2013-03-24 22:40:00,35.5,28.3,29.59,South,180,0.2,0.9,75,0.01,,,0.00,WUHU216HW,2013-03-25 02:40:00,
2013-03-24 22:45:00,35.3,28.1,29.59,SSE,158,1.1,1.1,75,0.01,,,0.00,WUHU216HW,2013-03-25 02:45:00,
2013-03-24 22:50:00,35.5,28.3,29.59,South,180,0.4,1.3,75,0.01,,,0.00,WUHU216HW,2013-03-25 02:50:00,
2013-03-24 22:55:00,35.3,28.1,29.59,SSE,158,1.3,2.5,75,0.01,,,0.00,WUHU216HW,2013-03-25 02:55:00,
2013-03-24 23:00:00,35.3,28.1,29.59,South,180,1.6,2.5,75,0.01,,,0.00,WUHU216HW,2013-03-25 03:00:00,
2013-03-24 23:05:00,35.1,28.3,29.60,South,180,1.1,1.8,76,0.01,,,0.00,WUHU216HW,2013-03-25 03:05:00,
2013-03-24 23:10:00,35.1,28.3,29.59,South,180,1.8,3.8,76,0.01,,,0.00,WUHU216HW,2013-03-25 03:10:00,
2013-03-24 23:15:00,35.1,28.3,29.59,SSE,158,1.1,3.8,76,0.01,,,0.00,WUHU216HW,2013-03-25 03:15:00,
2013-03-24 23:20:00,35.1,28.3,29.58,SSE,158,0.7,4.0,76,0.01,,,0.00,WUHU216HW,2013-03-25 03:20:00,
2013-03-24 23:25:00,34.9,28.4,29.58,SSE,158,0.2,4.0,77,0.01,,,0.00,WUHU216HW,2013-03-25 03:25:00,
2013-03-24 23:30:00,35.1,28.5,29.58,South,180,2.9,3.1,77,0.00,,,0.00,WUHU216HW,2013-03-25 03:30:00,
2013-03-24 23:35:00,35.1,28.5,29.57,SSW,203,1.6,3.1,77,0.00,,,0.00,WUHU216HW,2013-03-25 03:35:00,
2013-03-24 23:40:00,35.1,28.5,29.57,SE,135,2.2,3.1,77,0.00,,,0.00,WUHU216HW,2013-03-25 03:40:00,
2013-03-24 23:45:00,35.1,28.5,29.57,South,180,2.5,4.0,77,0.00,,,0.00,WUHU216HW,2013-03-25 03:45:00,
2013-03-24 23:50:00,35.1,28.9,29.57,South,180,2.2,4.0,78,0.00,,,0.00,WUHU216HW,2013-03-25 03:50:00,
2013-03-24 23:55:00,34.9,28.7,29.57,SSE,158,1.1,6.0,78,0.01,,,0.02,WUHU216HW,2013-03-25 03:55:00,